Cedar City Regional Airport Cedar City US
ICAO: KCDC
IATA: CDC
Category: Medium
Scheduled Services: Yes

Elevation: 5622 ft
TransAlt. 18000 ft.

Airport Communications:
ASOS:119.025
CTAF:123.6
RDO:122.2
UNICOM:122.95

KCDC Zoom In..

If you have problems with the map follow the link
https://www.worldairports.se/pages/airport.php?
ICAO=KCDC

Runways:

(A) RW 02 length 8653 ft width 150 ft
---- / hdg 20

(B) RW 08 length 4822 ft width 60 ft
---- / hdg 83

(C) RW 20 length 8653 ft width 150 ft
ILS 110.10 / hdg 200

(D) RW 26 length 4822 ft width 60 ft
---- / hdg 263

Location; KCDC
Day. 08 / Time. 04.53 Zulu
* Altimeter: 30.04
* Temperature: 06° c. 42.8°f.
* Wind from: 290° Speed 07 kn.
Dewpoint: 04° c.
Visibility: 10 Statute Miles.
Clouds: Clear (automated report).

KCDC 080453Z AUTO 29007KT 10SM CLR 06/04 A3004 RMK AO2 SLP150 T00560039


Wind From 290°
Speed 07 kn.

 
 
jpsmedia worldairports.se 2019   terms of use